Regional Weather Roundup
Issued by NWS

Home | Current Version | Previous Version | Graphics & Text | Print | Product List | Glossary On
Versions: 1 2 3 4 5 6 7 8 9 10 11 12 13 14 15 16 17 18 19 20 21 22 23 24 25 26 27 28 29 30 31 32 33 34 35 36 37 38 39 40 41 42 43 44 45 46 47 48 49 50
000
ASUS43 KLOT 210400
RWRIL

ILLINOIS REGIONAL WEATHER ROUNDUP
NATIONAL WEATHER SERVICE CHICAGO/ROMEOVILLE IL
1100 PM CDT WED AUG 20 2014

NOTE: "FAIR" INDICATES FEW OR NO CLOUDS BELOW 12,000 FEET WITH NO
SIGNIFICANT WEATHER AND/OR OBSTRUCTIONS TO VISIBILITY.

* THESE STATIONS ARE NOT UNDER NWS QUALITY CONTROL. THEY ALSO MAY NOT
  REPORT WEATHER SUCH AS PRECIPITATION OR FOG.

ILZ001-002-007-009-015-016-024-210500-
NORTHWEST ILLINOIS

CITY           SKY/WX    TMP DP  RH WIND       PRES   REMARKS
MOLINE         CLEAR     70  67  90 E6        29.92R
STERLING*      MOCLDY    70  66  88 SE5       29.94F
$$

ILZ003-004-008-010-011-017-018-210500-
NORTH CENTRAL ILLINOIS

CITY           SKY/WX    TMP DP  RH WIND       PRES   REMARKS
ROCKFORD       CLOUDY    72  67  84 CALM      29.96R
ROCHELLE*      CLOUDY    68  66  92 CALM      29.96R
$$

ILZ005-006-012>014-019>023-210500-
NORTHEAST ILLINOIS

CITY           SKY/WX    TMP DP  RH WIND       PRES   REMARKS
CHICAGO-OHARE  MOCLDY    75  67  76 SW7       29.95R
CHICAGO-MIDWAY CLOUDY    78  70  76 SW6       29.95R HX  80
AURORA         CLOUDY    70  66  87 CALM      29.97R
WAUKEGAN       PTCLDY    70  67  90 NE3       29.94R
DUPAGE AIRPORT CLOUDY    73  67  81 SW5       29.96R
WHEELING       MOCLDY    77  69  76 SW3       29.96R
NORTHERLY ISL    N/A     77  68  73 S8          N/A
$$

LMZ740>746-210500-
SOUTHERN LAKE MICHIGAN

STATION/POSITION SKY/WX   TEMP    WIND        PRES    VSBY  WAVE
                          AIR SEA DIR/SP/G                  HT/PER
                          (F)     (DEG/KT/KT) (MB)    (MI)  (FT/S)
SOUTHERN BUOY              68 68   60/  6/  6 1013.6R         0
WAUKEGAN HARBOR            71      20/  4/  5   N/A
HARRISON CRIB              77     260/ 11/ 14   N/A
BURNHAM HARBOR             77     210/  6/ 11   N/A
CALUMET HARBOR             77     230/  2/  6 1013.0R
MICHIGAN CITY              76     200/ 12/ 14   N/A
MICHIGAN CITY 6N           74 72  220/ 10/ 12   N/A           1/ 2
ST. JOSEPH                 74 72  190/  8/ 10   N/A           1
$$

ILZ025>027-034>036-040-047-049-050-058-095>099-210500-
WEST-CENTRAL ILLINOIS

CITY           SKY/WX    TMP DP  RH WIND       PRES   REMARKS
QUINCY         CLEAR     77  73  87 S7        29.91S
MACOMB*        CLEAR     73  73  97 S6        29.94S
$$

ILZ028>032-037-038-041>044-048-051>054-059>061-210500-
CENTRAL ILLINOIS

CITY           SKY/WX    TMP DP  RH WIND       PRES   REMARKS
DECATUR        PTCLDY    74  69  85 S13       29.98S
PEORIA         PTCLDY    75  70  84 S6        29.94S
SPRINGFIELD    CLEAR     76  71  85 S13       29.96R
TAYLORVILLE    NOT AVBL
$$

ILZ033-039-045-046-055>057-062-063-210500-
EAST-CENTRAL ILLINOIS

CITY           SKY/WX    TMP DP  RH WIND       PRES   REMARKS
CHAMPAIGN      PTCLDY    72  69  90 S7        29.98F
MATTOON        CLEAR     73  69  87 S7        29.99S
$$

ILZ079-100>102-210500-
SOUTHWEST ILLINOIS

CITY           SKY/WX    TMP DP  RH WIND       PRES   REMARKS
BELLEVILLE     CLOUDY    74  74 100 N1        29.97F
CAHOKIA*       CLOUDY    76  73  91 SE6       29.97F
$$

ILZ064>066-069>071-074>076-080>082-084>086-088>090-092>094-210500-
SOUTH-CENTRAL ILLINOIS

CITY           SKY/WX    TMP DP  RH WIND       PRES   REMARKS
CARBONDALE     CLOUDY    78  75  90 SE6       30.00S HX  81
MT. VERNON     CLOUDY    79  70  73 SE5       30.01S HX  81
SALEM*         TSTM      76  69  78 NW13G29   30.05R
$$

ILZ067-068-072-073-078-083-087-091-210500-
SOUTHEAST ILLINOIS

CITY           SKY/WX    TMP DP  RH WIND       PRES   REMARKS
LAWRENCEVILLE  PTCLDY    71  69  93 S5        30.02S
HARRISBURG*    PTCLDY    77  75  93 S6        30.03S
ROBINSON*      PTCLDY    71  70  96 S3        30.02S
$$

ABBREVIATIONS USED IN REMARKS
   TC - TEMPERATURE IN CELSIUS
  WCI - WIND CHILL INDEX
   HX - HEAT INDEX
  VSB - VISIBILITY
$$




USA.gov is the U.S. government's official web portal to all federal, state and local government web resources and services.